Regional Weather Roundup
Issued by NWS Sterling, VA

Home | Current Version | Previous Version | Text Only | Print | Product List | Glossary Off
Versions: 1 2 3 4 5 6 7 8 9 10 11 12 13 14 15 16 17 18 19 20 21 22 23 24 25 26 27 28

000
ASUS41 KLWX 091110
RWRLWX

REGIONAL WEATHER ROUNDUP
NATIONAL WEATHER SERVICE BALTIMORE MD/WASHINGTON DC
600 AM EST FRI DEC 09 2016

Note: "FAIR" indicates few or no clouds below 12,000 feet
with no significant weather and/or obstructions to visibility.
 TC=TEMPERATURE CELSIUS

 * =Non NWS site. Station does not report precipitation (e.g. rain,
    snow, etc.), thunder, or fog.

DCZ001-MDZ009-015-VAZ040>042-051-053>054-091200-
WASHINGTON METRO

CITY           SKY/WX    TMP DP  RH WIND       PRES   REMARKS
WASHINGTON NAT PTCLDY    31  13  47 NW16G22   30.27R WCI  20
DULLES         CLEAR     27  11  51 NW7       30.26R
ANDREWS AFB    PTCLDY    29  12  48 NW16G24   30.23R WCI  17
FT BELVOIR     CLEAR     30  11  46 W13       30.27R WCI  20
QUANTICO       CLEAR     30  14  51 NW6       30.30R
COLLEGE PARK*  PTCLDY    30  12  47 W8        30.25R WCI  23
LEESBURG*      CLEAR     30  18  59 NW23G29   30.26R WCI  17
GAITHERSBURG*  CLEAR     27   9  46 NW10      30.27R WCI  17

$$

MDZ006>007-011-014-091200-
BALTIMORE METRO

CITY           SKY/WX    TMP DP  RH WIND       PRES   REMARKS
BWI AIRPORT    PTCLDY    28  14  55 W13       30.24R WCI  17
MD SCIENCE CTR   N/A     30  12  47 MISG      30.23R
MARTIN STATE   CLEAR     30  16  55 W12       30.25  WCI  21
ANNAPOLIS      CLEAR     32  16  51 W8        30.24R WCI  25
FORT MEADE*    PTCLDY    28  16  59 W9        30.27R WCI  20

$$

MDZ012-015-019>023-091200-
MARYLAND EASTERN SHORE

CITY           SKY/WX    TMP DP  RH WIND       PRES   REMARKS
OCEAN CITY     CLEAR     30  16  56 NW10G21   30.22R WCI  21
SALISBURY      PTCLDY    30  17  58 W10G21    30.22R WCI  21
BAY BRIDGE AP* CLEAR     30  16  55 MISG      30.25R
EASTON*        MOCLDY    30  16  55 NW10G21   30.27R WCI  21

$$

MDZ017>025-091200-
SOUTHERN MARYLAND

CITY           SKY/WX    TMP DP  RH WIND       PRES   REMARKS
PATUXENT RIVER PTCLDY    30  14  51 NW17G28   30.25R WCI  18
ST INIGOES     CLEAR     31  15  52 NW12G22   30.25R WCI  22
LEONARDTOWN*   CLEAR     30  14  51 W10       30.26S WCI  21

$$

MDZ003>005-091200-
NORTH CENTRAL MARYLAND

CITY           SKY/WX    TMP DP  RH WIND       PRES   REMARKS
FREDERICK*     NOT AVBL
HAGERSTOWN APT PTCLDY    28  13  53 W21       30.23R WCI  15
WESTMINSTER*     N/A    N/A N/A N/A W12       30.21R

$$

MDZ501>502-091200-
WESTERN MARYLAND

CITY           SKY/WX    TMP DP  RH WIND       PRES   REMARKS
OAKLAND*       CLOUDY    14  12  92 W12G24    30.15R FOG     WCI   0
CUMBERLAND*    NOT AVBL

$$

VAZ025>031-091200-
SHENANDOAH VALLEY

CITY           SKY/WX    TMP DP  RH WIND       PRES   REMARKS
WINCHESTER*    CLEAR     27  12  54 W17G26    30.26R WCI  14
FRONT ROYAL*   FAIR      28  12  50 W8        30.27R WCI  20
LURAY*         CLOUDY    28  16  59 W10G17    30.29R WCI  19
NEW MARKET*    CLOUDY    25  10  52 CALM      30.29R
STAUNTON*      PTCLDY    24  10  57 W15       30.30R WCI  11
WAYNESBORO*    FAIR      24   9  53 NW6       30.25S

$$

WVZ021-048>050-054>055-091200-
EASTERN WEST VIRGINIA PANHANDLE

CITY           SKY/WX    TMP DP  RH WIND       PRES   REMARKS
MARTINSBURG    PTCLDY    27  13  55 W17       30.26R WCI  14
PETERSBURG*    MOCLDY    28  14  54 W12G17    30.31R WCI  18

$$

VAZ036>039-050-091200-
CENTRAL FOOTHILLS

CITY           SKY/WX    TMP DP  RH WIND       PRES   REMARKS
CHARLOTTESVILL CLEAR     30  10  43 NW7G17    30.29R
CULPEPER*      CLEAR     30  12  47 W16       30.29R WCI  19
ORANGE*          N/A     27  18  69 CALM      30.30R
GORDONSVILLE*  FAIR      28  12  51 CALM      30.29R
WARRENTON*     FAIR      29   9  41 W7        30.27R

$$

VAZ055>057-091200-
NORTH AND CENTRAL PIEDMONT

CITY           SKY/WX    TMP DP  RH WIND       PRES   REMARKS
FREDERICKSBRG* CLEAR     31  17  56 NW9G17    30.28R WCI  22
STAFFORD*      CLEAR     28  14  55 NW3       30.33R

$$

NCZ024-NYZ072-PAZ021-071-VAZ022-071-091200-
OTHER REGIONAL OBSERVATIONS

CITY           SKY/WX    TMP DP  RH WIND       PRES   REMARKS
NEW YORK CITY    N/A     34  19  55 MISG        N/A
PHILADELPHIA   CLEAR     30  16  56 W10       30.18R WCI  21
PITTSBURGH     FLURRIES  23  17  78 W16G23    30.28R WCI  10
ROANOKE        MOCLDY    26  11  52 NW15G26   30.35R WCI  14
RICHMOND       CLEAR     28  16  60 NW8       30.29R WCI  20
RALEIGH        CLEAR     31  15  52 CALM      30.31R

$$

ANZ530>537-091200-
MARINE OBSERVATIONS

STATION/POSITION TIME  TEMP    WIND        PRES
                       AIR SEA DIR/SP/G
                 (UTC) (F)     (DEG/KT/KT) (MB)
THOMAS PT LIGHT  1100   31 47  300/ 15/ 19   N/A
BALT KEY BRIDGE  1048   31     270/ 19/ 22 1023.6R
COVE POINT       1048   31     330/ 18/ 25 1024.7R
LEWISETTA        1048   33 46  340/ 14/ 22 1024.3R
SOLOMONS ISLAND  1048   32 49  310/ 13/ 19   N/A
PINEY POINT      1048          340/ 25/ 27   N/A

$$





USA.gov is the U.S. government's official web portal to all federal, state and local government web resources and services.